Date,TemperatureHighF,TemperatureAvgF,TemperatureLowF,DewpointHighF,DewpointAvgF,DewpointLowF,HumidityHigh,HumidityAvg,HumidityLow,PressureMaxIn,PressureMinIn,WindSpeedMaxMPH,WindSpeedAvgMPH,GustSpeedMaxMPH,PrecipitationSumIn
2013-2-1,35.1,28.5,20.8,20.2,-4.8,-14.1,65,23,15,29.86,29.27,10,2,17,0.00
2013-2-2,35.1,25.5,18.1,22.2,3.7,-13.4,79,42,20,29.86,29.47,4,0,6,0.00
2013-2-3,44.8,32.3,24.8,29.1,16.9,0.5,88,59,25,29.47,29.30,8,1,11,0.00
2013-2-4,37.0,31.7,22.6,8.9,4.3,-1.6,44,31,22,29.59,29.36,5,1,8,0.00
2013-2-5,61.9,42.7,31.6,21.8,15.3,7.9,47,34,17,29.39,29.33,9,1,14,0.00
2013-2-6,59.7,41.3,27.9,32.1,16.3,3.0,91,44,13,29.80,29.39,6,1,8,0.00
2013-2-7,40.5,35.8,30.6,20.4,15.6,11.9,59,44,33,29.92,29.62,4,0,5,0.00
2013-2-8,56.5,39.5,32.2,44.8,27.0,9.1,98,68,29,29.62,29.24,7,1,13,0.00
2013-2-9,52.5,38.6,26.6,9.4,1.2,-7.3,32,21,13,29.86,29.47,6,2,13,0.00
2013-2-10,50.4,34.5,19.8,15.4,5.3,-0.1,59,32,14,29.98,29.71,4,0,6,0.00
2013-2-11,57.9,47.4,35.2,50.2,35.4,3.7,98,70,12,29.71,29.27,11,1,18,0.00
2013-2-12,67.6,52.3,43.9,12.2,5.8,1.6,25,15,10,29.47,29.33,8,2,13,0.00
2013-2-13,44.8,39.3,33.6,36.9,23.0,10.7,98,56,25,29.42,29.12,4,0,5,0.00
2013-2-14,59.5,40.9,28.2,39.1,19.4,3.1,98,56,12,29.53,29.27,5,1,6,0.00
2013-2-15,65.5,45.5,29.1,32.3,18.9,8.5,72,40,13,29.53,29.36,6,1,6,0.00
2013-2-16,41.0,36.8,30.0,35.5,21.2,-0.8,90,57,25,29.50,29.33,4,1,7,0.00
2013-2-17,35.6,27.7,23.0,2.1,-7.0,-13.3,33,21,15,29.71,29.36,8,3,14,0.00
2013-2-18,52.5,34.5,18.3,6.5,-2.1,-12.3,36,21,13,29.86,29.65,5,1,8,0.00
2013-2-19,48.2,39.3,34.7,41.0,22.2,2.0,95,55,20,29.65,29.27,10,2,13,0.00
2013-2-20,51.3,37.9,29.7,3.7,-1.5,-7.6,25,18,14,29.62,29.39,8,2,10,0.00
2013-2-21,50.4,35.1,24.3,4.7,0.1,-6.5,42,23,14,29.80,29.59,4,1,7,0.00
2013-2-22,38.7,34.6,31.8,16.9,10.7,0.7,47,37,25,29.86,29.68,3,1,5,0.00
2013-2-23,56.5,40.9,33.6,35.4,29.1,16.7,85,65,37,29.68,29.30,3,0,5,0.00
2013-2-24,63.9,46.0,36.0,45.7,22.1,-0.8,98,54,11,29.59,29.30,7,2,10,0.00
2013-2-25,50.2,36.3,25.9,10.5,5.1,-1.5,43,28,16,29.71,29.59,4,1,7,0.00
2013-2-26,41.2,33.2,25.9,40.7,24.9,7.9,98,74,42,29.71,29.09,4,1,7,0.00
2013-2-27,60.6,46.9,37.2,47.8,27.9,13.4,98,58,17,29.24,29.06,8,2,12,0.00
2013-2-28,48.4,42.4,38.8,20.8,14.8,8.1,41,33,22,29.27,29.12,8,3,13,0.00